Weather in Begichevo

Russia / Lipetsk Oblast     53°34′09″N   38°54′35″E
temp.,
°C
wind,
m/s
gust,
m/s
humid.,
%
clouds,
%
prec.,
mm/h
press.,
hPa
HPBL,
m
17 may, mon
mon1700:00+16ene367699 0.0 101387
03:00+15ene389269 0.8 1013146
06:00+16ene49945 0.0 1013208
09:00+21e697384 0.0 1012412
12:00+25se695497 0.0 1012813
15:00+26se6115125 0.0 10111984
18:00+23ese6126539 0.0 1010460
21:00+19ese61575100 0.0 1010365
18 may, tue
tue1800:00+18se617695 0.0 1010399
03:00+16se413705 0.0 1010280
06:00+15se4127287 0.0 1010241
09:00+20se6115944 0.0 1010418
12:00+24se69475 0.0 1009660
15:00+26ese71252100 0.0 10081481
18:00+23se7146486 0.0 1007855
21:00+19ese41182100 0.0 1008241
19 may, wed
wed1900:00+17ese4117735 0.0 1007224
03:00+16se377896 0.0 1008151
06:00+16ese378294 0.0 1007147
09:00+19sse467587 0.0 1008470
12:00+22sse456198 0.0 10081378
15:00+22se5126597 1.3 10081483
18:00+20sse5107295 0.1 1008955
21:00+15se378422 0.8 1008135
20 may, thu
thu2000:00+14sse3695100 0.2 1008122
03:00+13sse359658 0.2 1007125
06:00+13s2595100 1.2 1007227
09:00+13s3592100 2.2 1007368
12:00+17s797131 0.5 10081223
15:00+17ssw9117042 0.8 10091331
18:00+17ssw610750 0.1 10101158
21:00+13sw510883 0.1 1012376
21 may, fri
fri2100:00+11sw4128814 0.0 1014396
03:00+10sw399581 0.0 1016201
06:00+12sw249182 0.0 1017145
09:00+14ssw4784100 0.0 1018415
12:00+16sw3577100 0.1 1019731
15:00+20sw576727 1.4 10181242
18:00+20ssw257148 0.5 1017938
21:00+15sse348599 1.1 101762